FREGAT DEB, 45638

Orbit data source: Space-Track

FREGAT DEB, 45638 is space debris in LEO originally from a launch on Mon, 18 Jul 2011 UTC launched from the Tyuratam Missile And Space Complex (TTMTR). Debris objects in space refer to the collection of defunct objects orbiting the Earth. Examples of debris include non-operational satellites, rocket bodies, and fragments generated from explosions, collisions, or faulty payload assembly.

Loading next visibility...
FREGAT DEB details
Identifier
45638, 2011-037AE
Orbit
LEO
Last TLE update1 day ago
Origin
Flag of CISVVKO VKS (CIS)
ManufacturerLavochkin
MissionSpacecraft
Bus & MotorUnknown
MassUnknown
Launch date (UTC)
2011-07-18 (13 years ago)
Launch vehicleUnknown
Launch site
Tyuratam Missile And Space Complex (TTMTR)
Object type
Payload
Rocket body
Debris
Shape & HBRUnknown
Radar Cross SectionSmall (<0.1 m²)

Expand to show TLE details & history

TLE from 1 day ago
0 FREGAT DEB
1 45638U 11037AE  24360.09240562  .00080874  00000-0  66826-2 0  9998
2 45638  51.4171 125.4426 1439437 266.7447  76.8302 12.42347503195752
Epoch: 2024-12-25T02:13Z
Definitive object data (Epoch: 2024-12-25T02:13:03.845Z)
Latitude-0.00005°
Longitude-1.91457°
Altitude1,399.418 km
Speed7.206 km/s
True Right ascension08h 21m 46s
True Declination0° 00' 00"
Sunlit
Object was in full shadow at TLE epoch
Visualization TLE readout
Latitude-26.71157°
Longitude-29.66478°
Altitude755.993 km
Speed7.824 km/s
Apparent Right ascension03h 17m 53s
Apparent Declination-53° 13' 24"
Sunlit
Object is in full shadow
Visualization observer readout
Local Sidereal Time10:13:33
Azimuth228.071° WSW
Elevation-38.637°
Doppler factor1
Orbital elements
Apogee altitude2,630.752 km
Perigee altitude363.555 km
Semi-major axis7,875.291 km
Eccentricity0.1439437
Inclination51.4171°
RAAN125.4426°
Arg. of periapsis266.7447°
True anomaly93.34373°
Mean anomaly76.8302°
Eccentric anomaly85.04677°
Mean motion3.10558 °/min
BSTAR0.0066826
Orbital period115.92 mins
Loading maneuver chart data...
Loading historical data...
Loading historical data...
Loading historical data...
Loading historical data...
Loading historical data...
Loading historical data...
Loading historical data...

FREGAT DEB Visibility forecast

Observer location: undefined°, undefined

Span
Click to sort rows by Start time (UTC) header in descending order
Start Az.
Max El. time (UTC)
Max El. Az.
Max El.
End time (UTC)
End Az.
27 mins2024-12-26 11:10:18.160Z226.776° WSW2024-12-26 11:21:18.160Z163.227° S44.926°2024-12-26 11:37:18.160Z54.382° ENE
27 mins2024-12-26 13:14:18.160Z269.936° W2024-12-26 13:26:18.160Z346.77° N40.446°2024-12-26 13:41:18.160Z62.534° ENE
28 mins2024-12-26 15:18:18.160Z295.359° NW2024-12-26 15:32:18.160Z8.332° NNE39.617°2024-12-26 15:46:18.160Z86.834° E
26 mins2024-12-26 17:23:18.160Z305.786° NW2024-12-26 17:37:18.160Z8.167° NNE44.822°2024-12-26 17:49:18.160Z124.715° SE
21 mins2024-12-26 19:27:18.160Z299.662° NW2024-12-26 19:39:18.160Z241.449° WSW33.458°2024-12-26 19:48:18.160Z177.605° S
15 mins2024-12-27 08:23:18.160Z146.622° SSE2024-12-27 08:29:18.160Z109.652° ESE19.787°2024-12-27 08:38:18.160Z69.047° E
24 mins2024-12-27 10:20:18.160Z210.32° SW2024-12-27 10:29:18.160Z130.419° SE43.084°2024-12-27 10:44:18.160Z54.699° ENE
|